Regional Weather Roundup
Issued by NWS

Home | Current Version | Previous Version | Text Only | Print | Product List | Glossary Off
Versions: 1 2 3 4 5 6 7 8 9 10 11 12 13 14 15 16 17 18 19 20 21 22 23 24 25 26 27 28 29 30 31 32 33 34 35 36 37 38 39 40 41 42 43 44 45 46 47 48 49 50

000
ASUS43 KIND 281859
RWRIN

WEATHER ROUNDUP FOR INDIANA
NATIONAL WEATHER SERVICE INDIANAPOLIS IN
300 PM EDT THU AUG 28 2014

NOTE: "FAIR" INDICATES FEW OR NO CLOUDS BELOW 12,000 FEET WITH NO
SIGNIFICANT WEATHER AND/OR OBSTRUCTIONS TO VISIBILITY.

* - STATION DOES NOT REPORT WEATHER SUCH AS PRECIPITATION OR FOG.

+ - STATION NOT QUALITY CONTROLLED BY THE NATIONAL WEATHER SERVICE.
    USE DATA WITH CAUTION...ESPECIALLY DEWPOINT AND RELATIVE
    HUMIDITY OBSERVATIONS.

INZ001>003-010>013-019-020-282000-
NORTHWEST INDIANA

CITY           SKY/WX    TMP DP  RH WIND       PRES   REMARKS
GARY /AIRPORT/ MOSUNNY   75  61  60 NE9       30.10F
KNOX *+        MOSUNNY   77  61  57 E5        30.09F
MONTICELLO +   MOSUNNY   80  65  60 NE5       30.07F
VALPARAISO     MOSUNNY   78  62  57 VRB3      30.10F

$$

LMZ046-743>745-282000-
SOUTHERN LAKE MICHIGAN

STATION/POSITION TIME  TEMP WIND        PRES
                       AIR  DIR/SP/G
                 (UTC) (F)  (DEG/KT/KT) (MB)
MICHIGAN CITY    1800   68   10/  9/ 10   N/A

$$

INZ004-005-014>016-021>024-282000-
NORTH CENTRAL INDIANA

CITY           SKY/WX    TMP DP  RH WIND       PRES   REMARKS
GOSHEN         MOSUNNY   79  61  53 SE3       30.11F
SOUTH BEND     MOSUNNY   78  59  51 E6        30.11F

$$

INZ006>009-017-018-025>027-282000-
NORTHEAST INDIANA

CITY           SKY/WX    TMP DP  RH WIND       PRES   REMARKS
ANGOLA *+      MOSUNNY   77  72  83 VRB5      30.12F
FORT WAYNE     PTSUNNY   76  63  64 E7        30.11F

$$

INZ028-029-035-036-043>045-051>053-282000-
WEST CENTRAL INDIANA

CITY           SKY/WX    TMP DP  RH WIND       PRES   REMARKS
GREENCASTLE +  MOSUNNY   81  68  65 CALM      30.07F
LAFAYETTE      SUNNY     79  63  57 NE3       30.06F
TERRE HAUTE    MOSUNNY   84  67  56 CALM      30.05F

$$

INZ030>032-037>040-046>048-054>057-064-065-282000-
CENTRAL INDIANA

CITY           SKY/WX    TMP DP  RH WIND       PRES   REMARKS
COLUMBUS       MOSUNNY   84  68  58 E5        30.06F
FRANKFORT +    SUNNY     81  67  61 E5        30.09F
INDIANAPOLIS   MOSUNNY   82  65  56 E5        30.06F
-EAGLE CREEK   SUNNY     81  63  54 SE3       30.06F
KOKOMO *+      MOSUNNY   81  64  57 SE7       30.08F
MT COMFORT *+  SUNNY     81  61  50 E3        30.08F
SHELBYVILLE    MOSUNNY   84  68  58 VRB5      30.06F

$$

INZ033-034-041-042-049-050-058-059-282000-
EAST CENTRAL INDIANA

CITY           SKY/WX    TMP DP  RH WIND       PRES   REMARKS
MUNCIE         SUNNY     79  62  56 SE7       30.09F

$$

INZ060-061-067>069-081>083-085>088-282000-
SOUTHWEST INDIANA

CITY           SKY/WX    TMP DP  RH WIND       PRES   REMARKS
EVANSVILLE     PTSUNNY   88  73  61 SE7       30.01F HX  95

$$

INZ062-063-066-070>080-084-089>092-282000-
SOUTH CENTRAL AND SOUTHEAST INDIANA

CITY           SKY/WX    TMP DP  RH WIND       PRES   REMARKS
BLOOMINGTON    MOSUNNY   84  68  58 CALM      30.06F
SEYMOUR +      MOSUNNY   86  55  35 CALM      30.05

$$




USA.gov is the U.S. government's official web portal to all federal, state and local government web resources and services.